[[{"header":{"parameterUnit":"m.s-1","parameterCategory":1,"la1":30.2991,"la2":30.254,"lo1":-89.0895,"lo2":-89.0444,"dy":0.0017,"dx":0.0017,"nx":28,"ny":28,"refTime":"2023-07-28T03:00:00:Z","depth":0,"parameterNumber":2,"parameterNumberName":"U-component_of_WINDS"},"data":[0,0,0,0,0,0,0,0,0,0,0,0,0,0,0,0,0,0,0,0,0,0,0,0,0,0,0,0,0,0,0,0,0,0,0,0,0,0,0,0,0,0,0,0,0,0,0,0,0,0,0,0,0,0,0,0,0,0,0.8416,0.8417,0,0.8518,0.8519,0.852,0.857,0.857,0.857,0.857,0.867,0.8673,0.8675,0,0,0,0,0,0,0,0,0,0,0,0,0,0.8262,0.8265,0.8416,0.8418,0.8419,0.8517,0.8519,0.852,0.857,0.857,0.857,0.857,0.8669,0.8672,0.8676,0,0,0,0,0,0,0,0,0,0,0,0,0,0.8343,0.8265,0.8416,0.8456,0.846,0.8517,0.8519,0.8521,0.857,0.857,0.857,0.857,0.8668,0.8672,0.8676,0.87,0,0,0.8688,0.869,0,0,0,0,0,0,0,0,0.8338,0.8348,0.8449,0.8453,0.8458,0.8531,0.8501,0.8581,0.857,0.8528,0.857,0.857,0.8624,0.8631,0.865,0.8705,0.8709,0.8688,0.8691,0.8693,0.8694,0,0,0,0,0,0,0,0.8332,0.8344,0.8456,0.845,0.8456,0.8467,0.8478,0.8516,0.8574,0.8532,0.8536,0.8547,0.8626,0.8646,0.8653,0.8711,0.8688,0.8692,0.8694,0.8696,0.879,0.879,0,0,0,0,0,0,0.8321,0.8339,0.8453,0.8459,0.8397,0.847,0.8483,0.8508,0.8574,0.8584,0.8547,0.8549,0.8639,0.8648,0.8656,0.8689,0.8693,0.8696,0.8699,0.879,0.879,0.879,0,0,0,0,0,0,0.8317,0.8331,0.8449,0.84,0.8416,0.8472,0.85,0.851,0.853,0.8586,0.8596,0.8557,0.864,0.8651,0.8689,0.8694,0.8698,0.8702,0.879,0.879,0.879,0.8755,0,0,0,0,0,0,0.8313,0.8329,0.834,0.84,0.8419,0.8481,0.8501,0.8512,0.8537,0.8541,0.8598,0.8607,0.8641,0.8683,0.8693,0.8699,0.8705,0.879,0.879,0.879,0.8756,0.8754,0.8752,0,0,0,0,0,0.8307,0.8325,0.834,0.8353,0.8434,0.8481,0.8492,0.8531,0.8537,0.8548,0.8584,0.8605,0.8691,0.8686,0.8698,0.8705,0.879,0.879,0.879,0.8757,0.8754,0.8752,0,0,0,0,0,0,0.8262,0.8334,0.8351,0.839,0.8429,0.8489,0.8504,0.8527,0.8564,0.8566,0.8611,0.8624,0.8658,0.8685,0.8679,0.8732,0.8742,0.8745,0.8713,0.8711,0.8709,0.8702,0.8708,0,0,0,0,0,0.8257,0.8291,0.8351,0.8379,0.8398,0.8447,0.847,0.8496,0.8539,0.8555,0.8594,0.8633,0.8669,0.8692,0.8728,0.876,0.8773,0.8771,0.8769,0.8767,0.8769,0.8788,0.8787,0.8791,0.8791,0.8791,0,0,0.8246,0.8289,0.8308,0.8371,0.8405,0.8438,0.8461,0.8495,0.852,0.856,0.8599,0.8628,0.8675,0.871,0.8728,0.8735,0.877,0.8767,0.8765,0.8768,0.8788,0.8787,0.8787,0.8791,0.8791,0.8791,0,0,0.8243,0.828,0.8307,0.8341,0.8392,0.8425,0.8431,0.8489,0.851,0.855,0.8581,0.861,0.8671,0.8703,0.8727,0.8736,0.8757,0.8746,0.8736,0.8754,0.8754,0.8754,0.8757,0.8757,0.8748,0.8748,0.8748,0,0.8223,0.8276,0.8318,0.8351,0.8377,0.8416,0.8444,0.8474,0.8533,0.855,0.8557,0.8634,0.8668,0.8711,0.8714,0.8732,0.874,0.874,0.8751,0.8751,0.8752,0.8755,0.8756,0.8746,0.8746,0.8746,0.8747,0,0.8248,0.8284,0.8299,0.8358,0.8386,0.8415,0.8461,0.8484,0.8508,0.854,0.858,0.8622,0.8667,0.8679,0.8703,0.8726,0.8728,0.8742,0.8753,0.8749,0.8753,0.8754,0.8744,0.8744,0.8745,0.8745,0,0,0.822,0.8302,0.8307,0.8334,0.8393,0.8421,0.8451,0.8497,0.8516,0.8555,0.8582,0.8632,0.8646,0.8673,0.87,0.8716,0.872,0.8728,0.873,0.8725,0.8748,0.8737,0.8738,0.8734,0.8735,0.8735,0.8744,0,0.8225,0.8285,0.8324,0.8366,0.84,0.8437,0.8464,0.8502,0.8532,0.8564,0.8597,0.8632,0.8647,0.8663,0.8681,0.8716,0.8725,0.8716,0.8759,0.876,0.8746,0.874,0.8729,0.8735,0.8746,0.8746,0.8746,0,0.824,0.828,0.8327,0.8383,0.8398,0.8421,0.8466,0.8496,0.854,0.8561,0.8591,0.8619,0.8652,0.866,0.8706,0.8698,0.8718,0.8738,0.8739,0.8745,0.8753,0.8745,0.8738,0.8739,0.8749,0.8749,0.8748,0,0.8215,0.828,0.8317,0.8338,0.8404,0.842,0.8448,0.8492,0.8517,0.8555,0.8572,0.8613,0.8635,0.8666,0.8704,0.8706,0.8745,0.8757,0.8763,0.8762,0.877,0.8769,0.8765,0.8782,0.8782,0.8782,0.8782,0,0.8217,0.8244,0.8306,0.8329,0.836,0.8404,0.8433,0.8463,0.8502,0.853,0.8565,0.859,0.8638,0.8669,0.8698,0.8732,0.8741,0.8758,0.8766,0.8755,0.8753,0.8769,0.877,0.8782,0.8782,0.8782,0.8782,0,0.8194,0.8237,0.8279,0.8339,0.8354,0.8374,0.8425,0.8447,0.8479,0.8514,0.8525,0.8574,0.8613,0.8653,0.8705,0.8724,0.8756,0.8767,0.8741,0.8746,0.875,0.8749,0.8757,0.876,0.8774,0.8774,0.8773,0,0.8193,0.8215,0.8277,0.8299,0.8326,0.8361,0.8387,0.843,0.8456,0.8507,0.8523,0.8564,0.8599,0.8658,0.8698,0.8737,0.8749,0.8749,0.8755,0.8744,0.8749,0.8747,0.875,0.8747,0.8747,0.8747,0.8746,0,0.8186,0.8206,0.8243,0.8287,0.8317,0.8354,0.8391,0.8407,0.8457,0.8484,0.8524,0.8551,0.8604,0.8644,0.8688,0.8716,0.8739,0.8744,0.8748,0.8737,0.8722,0.873,0.8736,0.8744,0.8744,0.8744,0.8744,0.8744,0.8174,0.8195,0.8242,0.8282,0.8315,0.8349,0.8373,0.8409,0.8444,0.8491,0.8514,0.8554,0.8597,0.8659,0.8686,0.8717,0.8724,0.8729,0.873,0.8731,0.8728,0.8717,0.8725,0.8725,0.8725,0.8725,0.8725,0,0.8168,0.8201,0.8237,0.8289,0.832,0.8341,0.8383,0.8407,0.8442,0.8481,0.8515,0.8561,0.86,0.8643,0.8684,0.87,0.8712,0.871,0.8709,0.8715,0.8719,0.8712,0.8699,0.8699,0.8699,0.8699,0.8699,0.8699,0.8169,0.8206,0.8232,0.8286,0.8317,0.8358,0.838,0.8412,0.8443,0.8493,0.8526,0.8554,0.8594,0.8639,0.8675,0.8687,0.87,0.8694,0.8709,0.8712,0.8714,0.8716,0.871,0.8697,0.8697,0.8702,0.8702,0.8702]},{"header":{"parameterUnit":"m.s-1","parameterCategory":1,"la1":30.2991,"la2":30.254,"lo1":-89.0895,"lo2":-89.0444,"dy":0.0017,"dx":0.0017,"nx":28,"ny":28,"refTime":"2023-07-28T03:00:00:Z","depth":0,"parameterNumber":3,"parameterNumberName":"V-component_of_WINDS"},"data":[0,0,0,0,0,0,0,0,0,0,0,0,0,0,0,0,0,0,0,0,0,0,0,0,0,0,0,0,0,0,0,0,0,0,0,0,0,0,0,0,0,0,0,0,0,0,0,0,0,0,0,0,0,0,0,0,0,0,5.2276,5.2276,0,5.2269,5.2269,5.2269,5.2201,5.2199,5.2197,5.2196,5.2189,5.219,5.2192,0,0,0,0,0,0,0,0,0,0,0,0,0,5.223,5.2232,5.2276,5.2276,5.2276,5.2269,5.2269,5.2269,5.2201,5.2199,5.2197,5.2195,5.2189,5.219,5.2192,0,0,0,0,0,0,0,0,0,0,0,0,0,5.224,5.2232,5.2276,5.2241,5.2238,5.2269,5.2269,5.2269,5.2201,5.2199,5.2196,5.2194,5.2188,5.219,5.2192,5.2256,0,0,5.2199,5.2199,0,0,0,0,0,0,0,0,5.2239,5.2241,5.2246,5.2244,5.224,5.2233,5.225,5.2265,5.2202,5.2215,5.2196,5.2193,5.2206,5.2206,5.2211,5.2256,5.2256,5.2199,5.22,5.2201,5.2202,0,0,0,0,0,0,0,5.2239,5.2241,5.2273,5.2247,5.2243,5.2226,5.2224,5.2253,5.2225,5.2214,5.2209,5.2209,5.2204,5.2209,5.221,5.2256,5.2199,5.2201,5.2202,5.2203,5.2353,5.2355,0,0,0,0,0,0,5.2243,5.2241,5.2273,5.2273,5.2233,5.2229,5.2227,5.2238,5.2224,5.222,5.2211,5.2206,5.2206,5.2208,5.2209,5.2283,5.2201,5.2203,5.2204,5.235,5.2353,5.2356,0,0,0,0,0,0,5.2242,5.2246,5.2274,5.2256,5.2258,5.2232,5.2245,5.2239,5.2244,5.2222,5.2217,5.2222,5.2204,5.2206,5.2245,5.2282,5.2204,5.2206,5.2347,5.2351,5.2355,5.2431,0,0,0,0,0,0,5.2241,5.2247,5.2271,5.2257,5.2259,5.231,5.2247,5.2241,5.2248,5.2241,5.2231,5.2227,5.2203,5.2242,5.2247,5.2283,5.2207,5.2343,5.2349,5.2353,5.2425,5.2437,5.2448,0,0,0,0,0,5.224,5.2293,5.2272,5.2276,5.2289,5.2312,5.2313,5.2284,5.2251,5.2275,5.2261,5.2227,5.2277,5.2247,5.2252,5.2289,5.2341,5.2347,5.2353,5.242,5.2435,5.2448,0,0,0,0,0,0,5.2312,5.229,5.2267,5.2317,5.2317,5.23,5.233,5.2301,5.231,5.2303,5.2267,5.2265,5.2309,5.2303,5.2269,5.235,5.2303,5.231,5.2352,5.2366,5.2377,5.2378,5.2209,0,0,0,0,0,5.2333,5.2354,5.2334,5.238,5.2381,5.2356,5.2365,5.2342,5.2341,5.234,5.2329,5.2328,5.2344,5.2355,5.2368,5.2424,5.2421,5.2453,5.2464,5.2473,5.248,5.2509,5.2522,5.2376,5.2376,5.2376,0,0,5.2379,5.2369,5.2384,5.2394,5.2391,5.2413,5.2356,5.2382,5.2397,5.2344,5.2379,5.2371,5.2368,5.2416,5.2436,5.2412,5.2519,5.2481,5.2489,5.249,5.2516,5.253,5.2542,5.238,5.238,5.2379,0,0,5.2472,5.2467,5.2505,5.2503,5.2499,5.2481,5.2491,5.2478,5.2471,5.2506,5.2466,5.2484,5.2512,5.2511,5.2515,5.2608,5.2576,5.2613,5.2672,5.27,5.2712,5.2722,5.2754,5.2766,5.262,5.262,5.262,0,5.2528,5.2559,5.2528,5.2556,5.2561,5.2514,5.2551,5.2551,5.2552,5.2557,5.253,5.2563,5.2558,5.2604,5.2627,5.2632,5.2641,5.2614,5.2713,5.2722,5.2731,5.2762,5.2774,5.2625,5.2624,5.2624,5.2623,0,5.2629,5.2651,5.2682,5.2683,5.2692,5.2725,5.2698,5.2711,5.2688,5.2674,5.271,5.2702,5.2713,5.2722,5.27,5.2766,5.2751,5.2719,5.2671,5.275,5.2778,5.279,5.2631,5.2629,5.2628,5.2627,0,0,5.2767,5.275,5.2762,5.2762,5.2754,5.2771,5.2801,5.2811,5.2823,5.2825,5.285,5.2874,5.2845,5.2849,5.2826,5.2851,5.2925,5.2816,5.2815,5.2836,5.2996,5.3019,5.3033,5.2904,5.2906,5.2908,5.2996,0,5.2856,5.2907,5.2879,5.2934,5.2954,5.2909,5.2935,5.2934,5.2921,5.2936,5.2922,5.294,5.29,5.2902,5.2925,5.2911,5.2956,5.2904,5.2926,5.2928,5.2928,5.3048,5.3073,5.3156,5.3007,5.3008,5.301,0,5.2966,5.2973,5.303,5.3018,5.3025,5.3049,5.3056,5.3071,5.3068,5.3057,5.3062,5.3033,5.3062,5.3015,5.3055,5.302,5.3028,5.3022,5.3025,5.3025,5.2973,5.3051,5.3182,5.3194,5.3027,5.3026,5.3024,0,5.306,5.3084,5.312,5.3122,5.3109,5.3127,5.3122,5.3117,5.3125,5.3131,5.3135,5.3145,5.315,5.3158,5.3133,5.3101,5.3176,5.3127,5.3168,5.3168,5.3185,5.3184,5.3318,5.3191,5.3191,5.3191,5.319,0,5.3162,5.3199,5.3162,5.3185,5.3224,5.3192,5.3232,5.3223,5.3218,5.3238,5.32,5.322,5.3186,5.3202,5.3183,5.3218,5.3221,5.3213,5.3207,5.3216,5.3217,5.322,5.3213,5.3194,5.3193,5.3192,5.3192,0,5.3274,5.3251,5.3288,5.3273,5.327,5.3299,5.3286,5.3306,5.3291,5.3317,5.3321,5.3298,5.3315,5.329,5.3305,5.3292,5.3341,5.3327,5.3342,5.3337,5.3379,5.3375,5.3519,5.3536,5.3399,5.3401,5.3402,0,5.334,5.3367,5.3354,5.3365,5.3362,5.338,5.3387,5.3357,5.3366,5.3365,5.3385,5.3399,5.3408,5.3438,5.3422,5.3433,5.3419,5.3468,5.342,5.3428,5.3419,5.3417,5.3419,5.3478,5.348,5.3481,5.3482,0,5.346,5.3447,5.3459,5.3468,5.3478,5.3483,5.3485,5.3496,5.3464,5.3476,5.3493,5.35,5.3515,5.3529,5.3536,5.3532,5.3502,5.3498,5.3508,5.3516,5.3524,5.352,5.3368,5.3494,5.3493,5.3492,5.3492,5.3491,5.355,5.3572,5.3566,5.3581,5.3579,5.3582,5.36,5.3587,5.3601,5.361,5.3591,5.3613,5.3609,5.3615,5.3614,5.363,5.3609,5.3623,5.3627,5.363,5.3637,5.3522,5.3631,5.3631,5.3631,5.363,5.363,0,5.3668,5.3662,5.3675,5.368,5.3691,5.3662,5.3663,5.3675,5.3694,5.3693,5.3702,5.3722,5.3735,5.3721,5.3731,5.3747,5.3734,5.3751,5.3749,5.3749,5.3656,5.3646,5.3762,5.3762,5.3762,5.3762,5.3762,5.3762,5.373,5.3764,5.3751,5.3785,5.3778,5.3799,5.3802,5.3804,5.3803,5.3826,5.3837,5.3827,5.382,5.383,5.3842,5.3837,5.3842,5.3865,5.3855,5.3768,5.3755,5.3743,5.3733,5.3866,5.3866,5.3947,5.3947,5.3948]}]]